Home   Weather   Durango   Past weeks
Flag for USA

Past Weather in Durango, Colorado, USA — Yesterday and Last 2 Weeks

Now
86 °F

Sunny.


Feels Like: 83 °F
Forecast: 87 / 56 °F
Wind: 16 mph from West

Location: Durango-La Plata County Airport

Current Time: Jul 18, 2019 at 1:31:39 pm

Latest Report: Jul 18, 2019 at 12:53 pm


Visibility: 10 mi

Pressure: 29.93 "Hg (23.92 "Hg at 1989m altitude)

Humidity: 16%

Dew Point: 34 °F

Location of DurangoLocation

Past Weather in Durango — Graph

°F

Durango Temperature Yesterday

Maximum temperature yesterday: 88 °F (at 3:53 pm)
Minimum temperature yesterday: 56 °F (at 11:53 pm)
Average temperature yesterday: 72 °F

High & Low Weather Summary for the Past Weeks

 TemperatureHumidityPressure
High91 °F (Jul 16, 2:53 pm)100% (Jul 8, 4:53 am)30.41 "Hg (Jul 8, 4:53 am)
Low40 °F (Jul 5, 5:53 am)9% (Jul 9, 6:53 pm)29.78 "Hg (Jul 3, 7:53 pm)
Average69 °F40%30.01 "Hg
* Reported Jul 3 11:53 am — Jul 18 11:53 am, Durango. Weather by CustomWeather, © 2019

Note: Actual official high and low records may vary slightly from our data, if they occured in-between our weather recording intervals... More about our weather records

Advertising

Durango Weather History for the Previous 24 Hours

Scroll right to see more
 ConditionsComfort  
Time TempWeatherWind HumidityBarometerVisibility
11:53 am
Thu, Jul 18
85 °FSunny.13 mph16%29.96 "Hg10 mi
10:53 am80 °FSunny.7 mph20%29.97 "Hg10 mi
9:53 am75 °FSunny.No wind26%29.96 "Hg10 mi
8:53 am68 °FSunny.No wind33%29.98 "Hg10 mi
7:53 am58 °FSunny.3 mph54%29.98 "Hg9 mi
6:53 am55 °FSunny.No wind51%29.98 "Hg10 mi
5:53 am52 °FClear.No wind55%29.96 "Hg10 mi
4:53 am51 °FClear.6 mph59%29.95 "Hg10 mi
3:53 am59 °FClear.5 mph42%29.90 "Hg10 mi
2:53 am56 °FClear.3 mph47%29.91 "Hg10 mi
1:53 am56 °FClear.3 mph49%29.92 "Hg10 mi
12:53 am57 °FClear.5 mph46%29.93 "Hg10 mi
11:53 pm
Wed, Jul 17
56 °FClear.7 mph47%29.94 "Hg10 mi
10:53 pm62 °FClear.5 mph41%29.93 "Hg10 mi
9:53 pm70 °FClear.5 mph27%29.90 "Hg10 mi
8:53 pm76 °FClear.7 mph19%29.87 "Hg10 mi
7:53 pm81 °FSunny.10 mph17%29.86 "Hg10 mi
6:53 pm83 °FSunny.12 mph17%29.88 "Hg10 mi
5:53 pm86 °FSunny.14 mph14%29.88 "Hg10 mi
4:53 pm87 °FSunny.10 mph14%29.88 "Hg10 mi
3:53 pm88 °FSunny.16 mph15%29.89 "Hg10 mi
2:53 pm87 °FSunny.18 mph16%29.90 "Hg10 mi
1:53 pm87 °FSunny.13 mph16%29.90 "Hg10 mi
Weather by CustomWeather, © 2019

See weather overview